This is the latest recevied weather packets stored in our database for station/object N2ZVN. If no packets are shown the sender has not sent any weather packets the latest 10 day(s).
| Time | Temp. | Humidity | Pressure | Rain* | Wind** | Luminosity | Snow |
|---|---|---|---|---|---|---|---|
| 1777908538 | 18.89° C | 43% | 1006.1 hPa | 0 mm | - | 760 W/m² | - |
| 1777908235 | 18.33° C | 43% | 1006.3 hPa | 0 mm | - | 755 W/m² | - |
| 1777907932 | 18.33° C | 44% | 1006.5 hPa | 0 mm | - | 736 W/m² | - |
| 1777907627 | 17.78° C | 43% | 1006.4 hPa | 0 mm | - | 734 W/m² | - |
| 1777907323 | 18.33° C | 42% | 1006.4 hPa | 0 mm | - | 713 W/m² | - |
| 1777907019 | 17.78° C | 42% | 1006.5 hPa | 0 mm | - | 719 W/m² | - |
| 1777906717 | 17.78° C | 43% | 1006.1 hPa | 0 mm | - | 716 W/m² | - |
| 1777906413 | 17.78° C | 42% | 1006.5 hPa | 0 mm | - | 700 W/m² | - |
| 1777906110 | 17.78° C | 43% | 1006.5 hPa | 0 mm | - | 683 W/m² | - |
| 1777905806 | 17.78° C | 44% | 1006.4 hPa | 0 mm | - | 673 W/m² | - |
| 1777905504 | 17.78° C | 43% | 1006.5 hPa | 0 mm | - | 670 W/m² | - |
| 1777905201 | 17.78° C | 44% | 1006.4 hPa | 0 mm | - | 633 W/m² | - |
| 1777904898 | 17.78° C | 43% | 1006.4 hPa | 0 mm | - | 638 W/m² | - |
| 1777904595 | 17.22° C | 44% | 1006.4 hPa | 0 mm | - | 625 W/m² | - |
| 1777904292 | 17.22° C | 44% | 1006.3 hPa | 0 mm | - | 632 W/m² | - |
| 1777903990 | 17.22° C | 45% | 1006.4 hPa | 0 mm | - | 614 W/m² | - |
| 1777903686 | 16.67° C | 43% | 1006.5 hPa | 0 mm | - | 586 W/m² | - |
| 1777903382 | 17.22° C | 43% | 1006.5 hPa | 0 mm | - | 576 W/m² | - |
| 1777903079 | 16.67° C | 43% | 1006.3 hPa | 0 mm | - | 558 W/m² | - |
| 1777902775 | 16.67° C | 44% | 1006.1 hPa | 0 mm | - | 536 W/m² | - |
| 1777902473 | 16.67° C | 43% | 1006.5 hPa | 0 mm | - | 529 W/m² | - |
| 1777902169 | 16.11° C | 45% | 1006.3 hPa | 0 mm | - | 515 W/m² | - |
| 1777901868 | 16.11° C | 44% | 1006.6 hPa | 0 mm | - | 508 W/m² | - |
| 1777901564 | 16.11° C | 44% | 1006.7 hPa | 0 mm | - | 497 W/m² | - |
| 1777901262 | 16.11° C | 43% | 1006.6 hPa | 0 mm | - | 479 W/m² | - |
* Rain latest hour (hover to see other rain measurements)
** Current wind speed in m/s (hover to see current wind gust speed)